Home   Weather   Kakata   Past weeks

Flag for Liberia Past Weather in Kakata, Liberia — Yesterday and Last 2 Weeks

Now
77 °F

Passing clouds.


Feels Like: 78 °F
Forecast: 73 / 91 °F
Wind: No wind

Location: Roberts Field

Current Time: Jan 23, 2017 at 12:50:28 am

Latest Report: Jan 23, 2017 at 12:00 am


Visibility: N/A

Pressure: 29.89 "Hg

Humidity: 94%

Dew Point: 75 °F

Location of KakataLocation

Past Weather in Kakata — Graph

°F

Kakata Temperature Yesterday

Maximum temperature yesterday: 90 °F (at 1:00 pm)
Minimum temperature yesterday: 73 °F (at 5:30 am)
Average temperature yesterday: 81 °F

High & Low Weather Summary for the Past Weeks

 TemperatureHumidityPressure
High95 °F (Jan 14, 3:30 pm)100% (Jan 8, 6:00 am)29.92 "Hg (Jan 8, 6:00 am)
Low68 °F (Jan 14, 6:00 am)31% (Jan 14, 12:30 pm)29.71 "Hg (Jan 14, 3:30 pm)
Average81 °F83%29.83 "Hg
* Reported Jan 7 11:00 pm — Jan 22 11:30 pm, Kakata, Weather by CustomWeather, © 2017

Note: Actual official high and low records may vary slightly from our data, if they occured in-between our weather recording intervals... More about our weather records

Advertising

Kakata Weather History for the Previous 24 Hours

Scroll right to see more
 ConditionsComfort  
Time TempWeatherWind HumidityBarometerVisibility
11:30 pm
Sun, Jan 22
77 °FPassing clouds.No wind94%29.89 "HgN/A
11:00 pm79 °FPassing clouds.No wind94%29.89 "HgN/A
10:30 pm79 °FPassing clouds.No wind94%29.89 "HgN/A
10:00 pm79 °FPassing clouds.No wind94%29.89 "HgN/A
9:30 pm79 °FPassing clouds.No wind94%29.89 "HgN/A
9:00 pm79 °FPassing clouds.No wind94%29.89 "HgN/A
8:30 pm81 °FPassing clouds.No wind84%29.86 "HgN/A
8:00 pm81 °FPassing clouds.3 mph89%29.86 "HgN/A
7:30 pm82 °FScattered clouds.5 mph79%29.83 "HgN/A
7:00 pm82 °FScattered clouds.5 mph79%29.83 "HgN/A
6:30 pm84 °FScattered clouds.6 mph74%29.80 "HgN/A
6:00 pm84 °FScattered clouds.6 mph74%29.80 "HgN/A
5:30 pm86 °FPartly sunny.9 mph70%29.80 "HgN/A
5:00 pm86 °FScattered clouds.12 mph70%29.80 "HgN/A
4:30 pm88 °FBroken clouds.12 mph66%29.80 "HgN/A
4:00 pm88 °FBroken clouds.12 mph66%29.80 "HgN/A
3:30 pm88 °FBroken clouds.12 mph66%29.80 "HgN/A
3:00 pm90 °FBroken clouds.12 mph67%29.80 "HgN/A
2:30 pm90 °FPartly sunny.12 mph67%29.80 "HgN/A
2:00 pm90 °FPartly sunny.8 mph67%29.83 "HgN/A
1:30 pm90 °FPartly sunny.8 mph63%29.83 "HgN/A
1:00 pm90 °FPartly sunny.6 mph63%29.86 "HgN/A
12:30 pm88 °FPartly sunny.6 mph62%29.86 "HgN/A
12:00 pm88 °FPartly sunny.7 mph66%29.89 "HgN/A
11:30 am86 °FPartly sunny.3 mph75%29.89 "HgN/A
11:00 am84 °FPartly sunny.3 mph79%29.92 "HgN/A
10:30 am82 °FScattered clouds.6 mph84%29.92 "HgN/A
10:00 am81 °FScattered clouds.6 mph89%29.92 "HgN/A
9:30 am79 °FScattered clouds.6 mph94%29.92 "Hg6 mi
9:00 am77 °FScattered clouds.6 mph94%29.92 "Hg5 mi
8:30 am77 °FScattered clouds.3 mph94%29.89 "Hg5 mi
8:00 am75 °FPassing clouds.7 mph94%29.89 "Hg4 mi
7:30 am73 °FPassing clouds.6 mph94%29.89 "Hg4 mi
7:00 am73 °FPassing clouds.6 mph94%29.86 "Hg4 mi
6:30 am73 °FPassing clouds.5 mph94%29.86 "Hg4 mi
5:30 am73 °FPassing clouds.6 mph94%29.83 "Hg4 mi
5:00 am75 °FPassing clouds.5 mph94%29.83 "Hg4 mi
4:30 am75 °FPassing clouds.5 mph94%29.83 "Hg4 mi
4:00 am75 °FPassing clouds.3 mph94%29.83 "Hg4 mi
3:30 am75 °FPassing clouds.5 mph94%29.83 "Hg4 mi
3:00 am75 °FPassing clouds.No wind94%29.86 "Hg4 mi
2:30 am75 °FPassing clouds.6 mph94%29.86 "Hg4 mi
2:00 am75 °FPassing clouds.No wind94%29.86 "Hg4 mi
1:30 am75 °FPassing clouds.No wind94%29.86 "Hg4 mi
12:30 am75 °FPassing clouds.No wind94%29.89 "Hg4 mi
12:00 am77 °FPassing clouds.No wind94%29.89 "Hg5 mi
Weather by CustomWeather, © 2017

See weather overviewHow to use our weather pages